Minneapolis Flying Cloud, MN

3:46 AM CST on November 15, 2019 (GMT -0600)
Flying Cloud

Weather History for KFCM - September, 2019

Change the Weather History Date:

Friday, September 27, 2019

  Actual Average Record
Temperature  
Mean Temperature 58 °F -  
Max Temperature 64 °F 64 °F 86 °F (2013)
Min Temperature 52 °F 44 °F 37 °F (2002)
Degree Days  
Heating Degree Days 6    
Growing Degree Days 8 (Base 50)    
Moisture  
Dew Point 50 °F    
Average Humidity 69    
Maximum Humidity 83    
Minimum Humidity 54    
Precipitation  
Precipitation 0.00 in - - ()
Sea Level Pressure  
Sea Level Pressure 29.70 in    
Wind  
Wind Speed 10 mph (WNW)    
Max Wind Speed 14 mph    
Max Gust Speed 24 mph    
Visibility 10 miles    
Events      
Averages and records for this station are not official NWS values.
T = Trace of Precipitation, MM = Missing Value Source: NWS Daily Summary

Daily Weather History Graph

Daily Weather History Graph

Search for Another Location

Airport or City:

Astronomy

Sep. 27, 2019 Rise Set
Actual Time 7:06 AM CDT 7:02 PM CDT
Civil Twilight 6:37 AM CDT 7:31 PM CDT
Nautical Twilight 6:03 AM CDT 8:05 PM CDT
Astronomical Twilight 5:28 AM CDT 8:40 PM CDT
Moon 5:21 AM CDT (9/27) 6:58 PM CDT (9/27)
Length of Visible Light 12h 53m
Length of Day
11h 55m
Waning Crescent, 2% of the Moon is Illuminated
Sep 27
Waning Crescent
Sep 28
New
Oct 5
First Quarter
Oct 13
Full
Oct 21
Last Quarter

Hourly Weather History & Observations

Time (CDT) Temp. Dew Point Humidity Pressure Visibility Wind Dir Wind Speed Gust Speed Precip Events Conditions
12:53 AM 64.0 °F 46.9 °F 54% 29.58 in 10.0 mi SSW 11.5 mph 24.2 mph N/A   Clear
1:53 AM 64.0 °F 48.0 °F 56% 29.57 in 10.0 mi SSW 13.8 mph - N/A   Partly Cloudy
2:53 AM 64.0 °F 48.9 °F 58% 29.55 in 10.0 mi SSW 10.4 mph 24.2 mph N/A   Clear
3:53 AM 64.0 °F 50.0 °F 60% 29.55 in 10.0 mi SW 11.5 mph - N/A   Partly Cloudy
4:53 AM 63.0 °F 51.1 °F 65% 29.55 in 10.0 mi SW 10.4 mph - N/A   Mostly Cloudy
5:53 AM 62.1 °F 51.1 °F 67% 29.57 in 10.0 mi SW 6.9 mph - N/A   Overcast
6:53 AM 61.0 °F 52.0 °F 72% 29.57 in 10.0 mi West 4.6 mph - 0.00 in   Mostly Cloudy
7:53 AM 61.0 °F 52.0 °F 72% 29.59 in 10.0 mi WSW 3.5 mph - N/A   Overcast
8:53 AM 61.0 °F 53.1 °F 75% 29.59 in 10.0 mi WNW 3.5 mph - N/A   Overcast
9:53 AM 61.0 °F 53.1 °F 75% 29.62 in 10.0 mi NW 12.7 mph - N/A   Overcast
10:53 AM 61.0 °F 53.1 °F 75% 29.64 in 10.0 mi WNW 6.9 mph 17.3 mph N/A   Overcast
11:53 AM 64.9 °F 51.1 °F 61% 29.68 in 10.0 mi WNW 12.7 mph 20.7 mph N/A   Scattered Clouds
12:53 PM 63.0 °F 52.0 °F 67% 29.68 in 10.0 mi WNW 12.7 mph - N/A   Scattered Clouds
1:15 PM 64.0 °F 53.1 °F 67% 29.69 in 10.0 mi NW 10.4 mph - N/A   Mostly Cloudy
1:27 PM 63.0 °F 53.1 °F 70% 29.68 in 9.0 mi NNW 9.2 mph - N/A   Scattered Clouds
1:53 PM 62.1 °F 52.0 °F 70% 29.69 in 10.0 mi NW 10.4 mph - N/A   Scattered Clouds
2:53 PM 62.1 °F 51.1 °F 67% 29.71 in 10.0 mi Variable 4.6 mph - N/A   Scattered Clouds
3:19 PM 63.0 °F 52.0 °F 67% 29.72 in 10.0 mi WNW 5.8 mph - N/A   Mostly Cloudy
3:51 PM 62.6 °F 51.8 °F 68% 29.72 in 10.0 mi NW 8.1 mph - N/A   Scattered Clouds
3:53 PM 63.0 °F 51.1 °F 65% 29.72 in 10.0 mi WNW 9.2 mph - N/A   Scattered Clouds
4:53 PM 62.1 °F 50.0 °F 65% 29.75 in 10.0 mi WNW 10.4 mph - N/A   Partly Cloudy
5:53 PM 61.0 °F 48.9 °F 64% 29.78 in 10.0 mi NW 10.4 mph - N/A   Scattered Clouds
6:53 PM 57.9 °F 48.9 °F 72% 29.81 in 10.0 mi NW 13.8 mph - N/A   Partly Cloudy
7:53 PM 55.9 °F 46.9 °F 72% 29.86 in 10.0 mi NW 6.9 mph - N/A   Clear
8:53 PM 55.0 °F 46.9 °F 74% 29.87 in 10.0 mi NNW 11.5 mph 18.4 mph N/A   Mostly Cloudy
9:53 PM 55.0 °F 48.0 °F 77% 29.88 in 10.0 mi NNW 9.2 mph - N/A   Overcast
10:53 PM 53.1 °F 46.9 °F 80% 29.91 in 10.0 mi North 8.1 mph - N/A   Partly Cloudy
11:53 PM 52.0 °F 46.9 °F 83% 29.95 in 10.0 mi North 6.9 mph - N/A   Clear